Location: Bourg-d�Oueil
(42.8588°N, 0.4991°E)
Time: 18:40:51
(UTC+00:00)

Hubble Space Telescope - Visible Passes

Search period start: 09 December 2022 00:00
Search period end: 19 December 2022 00:00
Orbit: 530 x 534 km, 28.5° (Epoch: 08 December)

Date Brightness Start Highest point End Pass type
(mag) Time Alt. Az. Time Alt. Az. Time Alt. Az.
09 Dec 3.6 06:32:44 10° S 06:33:36 11° S 06:34:28 10° SSE visible
10 Dec 3.5 06:19:53 10° SSW 06:20:47 11° S 06:21:42 10° SSE visible
11 Dec 3.5 06:07:12 10° SSW 06:07:59 10° S 06:08:46 10° S visible
12 Dec 3.5 05:54:50 10° S 05:55:10 10° S 05:55:29 10° S visible
